W0WC Weather Reports


time (UTC)temp
F
wind
direction
speed
knots
gust
knots
rain 1hr
in
rain 24hr
in
rain mn
in
humidity
%
barometer
mb
20260901123051 82 182 2.6 3.5 0.00 0.00 0.00 56 1018.8
20260901122549 82 180 1.7 2.6 0.00 0.00 0.00 56 1018.7
20260901122049 82 43 3.5 6.1 0.00 0.00 0.00 56 1018.6
20260901121549 82 303 3.5 5.2 0.00 0.00 0.00 55 1018.6
20260901121045 82 156 2.6 2.6 0.00 0.00 0.00 55 1018.7
20260901120544 82 335 2.6 3.5 0.00 0.00 0.00 55 1018.4
20260901120040 82 30 0.9 0.9 0.00 0.00 0.00 55 1018.5
20260901115535 82 48 0.9 0.9 0.00 0.00 0.00 55 1018.6
20260901115032 82 271 2.6 3.5 0.00 0.00 0.00 55 1018.4
20260901114528 82 192 2.6 2.6 0.00 0.00 0.00 55 1018.4
20260901114026 82 100 1.7 1.7 0.00 0.00 0.00 55 1018.4
20260901113525 82 200 2.6 2.6 0.00 0.00 0.00 55 1018.2
20260901113021 82 118 4.3 5.2 0.00 0.00 0.00 55 1018.2
20260901112516 82 183 2.6 3.5 0.00 0.00 0.00 54 1018.1
20260901112011 82 43 1.7 1.7 0.00 0.00 0.00 54 1018.1
20260901111509 82 135 1.7 1.7 0.00 0.00 0.00 54 1018.0
20260901111008 82 196 1.7 2.6 0.00 0.00 0.00 54 1017.8
20260901110504 82 48 0.9 1.7 0.00 0.00 0.00 54 1017.9
20260901105959 82 92 1.7 1.7 0.00 0.00 0.00 54 1017.8
20260901105455 82 224 1.7 2.6 0.00 0.00 0.00 54 1017.8
20260901104955 82 152 2.6 3.5 0.00 0.00 0.00 54 1017.9
20260901104451 82 86 2.6 3.5 0.00 0.00 0.00 54 1017.8
20260901103951 82 193 1.7 1.7 0.00 0.00 0.00 54 1017.6
20260901103446 82 177 2.6 2.6 0.00 0.00 0.00 55 1017.9
20260901102941 82 204 4.3 6.1 0.00 0.00 0.00 54 1017.6
20260901102436 82 121 3.5 3.5 0.00 0.00 0.00 55 1017.8
20260901101931 82 279 0.9 1.7 0.00 0.00 0.00 55 1017.6
20260901101426 82 105 3.5 6.1 0.00 0.00 0.00 55 1017.6
20260901100926 82 199 1.7 2.6 0.00 0.00 0.00 55 1017.6
20260901100420 82 86 1.7 1.7 0.00 0.00 0.00 55 1017.8
20260901095914 82 69 0.9 1.7 0.00 0.00 0.00 54 1017.6
20260901095413 82 265 1.7 1.7 0.00 0.00 0.00 54 1017.4
20260901094911 82 13 3.5 5.2 0.00 0.00 0.00 54 1017.4
20260901094406 82 136 4.3 7.8 0.00 0.00 0.00 54 1017.5
20260901093901 82 329 3.5 5.2 0.00 0.00 0.00 54 1017.5
20260901093400 82 8 0.9 1.7 0.00 0.00 0.00 55 1017.4
20260901092856 82 180 5.2 7.0 0.00 0.00 0.00 55 1017.3
20260901092356 82 115 3.5 3.5 0.00 0.00 0.00 55 1017.5
20260901091853 82 178 1.7 1.7 0.00 0.00 0.00 55 1017.2
20260901091352 81 161 4.3 5.2 0.00 0.00 0.00 55 1017.4
20260901090847 81 168 1.7 2.6 0.00 0.00 0.00 55 1017.2
20260901090342 81 40 1.7 1.7 0.00 0.00 0.00 55 1017.0
20260901085838 81 106 1.7 2.6 0.00 0.00 0.00 56 1017.1
20260901085333 81 216 2.6 3.5 0.00 0.00 0.00 56 1017.3
20260901084829 81 84 0.9 1.7 0.00 0.00 0.00 56 1017.3
20260901084325 81 37 0.9 1.7 0.00 0.00 0.00 56 1017.2
20260901083821 81 145 2.6 2.6 0.00 0.00 0.00 55 1017.1
20260901083320 81 49 0.0 0.9 0.00 0.00 0.00 55 1017.1
20260901082819 81 56 0.9 1.7 0.00 0.00 0.00 55 1017.1
20260901082314 81 38 1.7 1.7 0.00 0.00 0.00 55 1016.9
20260901081810 81 164 2.6 3.5 0.00 0.00 0.00 54 1017.1
20260901081309 81 72 3.5 5.2 0.00 0.00 0.00 54 1016.9
20260901080804 81 71 1.7 2.6 0.00 0.00 0.00 54 1017.0
20260901080305 81 196 4.3 5.2 0.00 0.00 0.00 54 1017.1
20260901075758 81 122 4.3 6.1 0.00 0.00 0.00 54 1016.9
20260901075254 81 138 2.6 3.5 0.00 0.00 0.00 54 1017.0
20260901074753 81 88 2.6 2.6 0.00 0.00 0.00 54 1016.8
20260901074248 81 39 1.7 2.6 0.00 0.00 0.00 53 1016.9
20260901073745 81 41 1.7 2.6 0.00 0.00 0.00 53 1017.0
20260901073240 82 41 1.7 2.6 0.00 0.00 0.00 53 1017.1
20260901072735 82 123 1.7 2.6 0.00 0.00 0.00 53 1017.0
20260901072230 82 84 3.5 5.2 0.00 0.00 0.00 52 1016.9
20260901071730 82 94 2.6 2.6 0.00 0.00 0.00 52 1016.9
20260901071230 82 73 0.9 0.9 0.00 0.00 0.00 52 1017.1
20260901070729 82 76 1.7 2.6 0.00 0.00 0.00 52 1017.2
20260901070225 82 58 1.7 1.7 0.00 0.00 0.00 52 1017.1
20260901065724 82 151 1.7 1.7 0.00 0.00 0.00 51 1017.1
20260901065219 82 221 2.6 2.6 0.00 0.00 0.00 51 1017.0
20260901064715 83 77 0.9 1.7 0.00 0.00 0.00 50 1016.9
20260901064212 83 187 3.5 3.5 0.00 0.00 0.00 50 1017.1
20260901063708 83 81 1.7 1.7 0.00 0.00 0.00 50 1017.0
20260901063205 83 150 2.6 3.5 0.00 0.00 0.00 50 1017.1
20260901062700 84 78 1.7 2.6 0.00 0.00 0.00 49 1017.3
20260901062155 84 127 3.5 3.5 0.00 0.00 0.00 48 1017.3
20260901061652 84 53 1.7 1.7 0.00 0.00 0.00 48 1017.2
20260901061151 84 174 1.7 2.6 0.00 0.00 0.00 48 1017.3
20260901060646 85 78 1.7 2.6 0.00 0.00 0.00 47 1017.2
20260901060142 85 234 2.6 2.6 0.00 0.00 0.00 47 1017.1
20260901055637 85 113 1.7 3.5 0.00 0.00 0.00 47 1017.1
20260901055134 85 53 1.7 1.7 0.00 0.00 0.00 47 1017.0
20260901054630 85 176 1.7 2.6 0.00 0.00 0.00 47 1017.2
20260901054126 85 83 1.7 2.6 0.00 0.00 0.00 46 1017.1
20260901053622 85 102 3.5 3.5 0.00 0.00 0.00 46 1017.0
20260901053118 85 146 1.7 2.6 0.00 0.00 0.00 46 1017.1
20260901052618 85 54 0.9 0.9 0.00 0.00 0.00 46 1016.9
20260901052114 85 141 0.9 1.7 0.00 0.00 0.00 46 1017.0
20260901051613 85 68 0.9 0.9 0.00 0.00 0.00 45 1017.1
20260901051112 86 25 0.0 0.9 0.00 0.00 0.00 45 1016.9
20260901050607 86 112 2.6 3.5 0.00 0.00 0.00 45 1017.0
20260901045558 86 90 1.7 2.6 0.00 0.00 0.00 44 1016.9
20260901045057 86 155 1.7 2.6 0.00 0.00 0.00 45 1017.0
20260901044554 86 163 3.5 3.5 0.00 0.00 0.00 45 1016.9
20260901044049 86 63 2.6 2.6 0.00 0.00 0.00 45 1017.0
20260901043545 86 106 1.7 1.7 0.00 0.00 0.00 45 1016.8
20260901043040 86 75 1.7 1.7 0.00 0.00 0.00 45 1016.9
20260901042539 87 216 3.5 3.5 0.00 0.00 0.00 44 1016.8
20260901042035 87 160 2.6 3.5 0.00 0.00 0.00 44 1016.7
20260901041530 87 71 2.6 3.5 0.00 0.00 0.00 44 1016.7
20260901041025 86 83 3.5 5.2 0.00 0.00 0.00 44 1016.9
20260901040519 86 90 2.6 2.6 0.00 0.00 0.00 44 1016.8
20260901040019 86 168 2.6 2.6 0.00 0.00 0.00 45 1016.9
20260901035517 85 170 1.7 1.7 0.00 0.00 0.00 46 1016.8
20260901035016 85 47 1.7 1.7 0.00 0.00 0.00 47 1016.8
20260901034516 85 28 0.9 1.7 0.00 0.00 0.00 47 1016.5
20260901034010 84 76 1.7 1.7 0.00 0.00 0.00 48 1016.6
20260901033509 83 32 0.0 0.9 0.00 0.00 0.00 51 1016.7
20260901033010 83 30 0.0 0.9 0.00 0.00 0.00 51 1016.7
20260901032503 83 25 0.0 0.0 0.00 0.00 0.00 51 1016.5
20260901031958 83 21 0.0 0.0 0.00 0.00 0.00 51 1016.4
20260901031454 83 13 0.0 0.0 0.00 0.00 0.00 51 1016.4
20260901030954 83 14 0.0 0.0 0.00 0.00 0.00 50 1016.3
20260901030449 84 13 0.0 0.0 0.00 0.00 0.00 49 1016.3
20260901025948 84 15 0.0 0.0 0.00 0.00 0.00 49 1016.6
20260901025443 84 15 0.0 0.0 0.00 0.00 0.00 48 1016.2
20260901024942 84 14 0.0 0.0 0.00 0.00 0.00 48 1016.2
20260901024437 85 14 0.0 0.0 0.00 0.00 0.00 48 1016.5
20260901023936 85 15 0.0 0.0 0.00 0.00 0.00 48 1016.3
20260901023431 86 13 0.0 0.0 0.00 0.00 0.00 46 1016.1
20260901022926 86 3 0.0 0.0 0.00 0.00 0.00 46 1016.3
20260901022422 86 8 0.0 0.0 0.00 0.00 0.00 45 1016.2
20260901021916 86 12 0.0 0.0 0.00 0.00 0.00 44 1016.0
20260901021412 87 16 0.0 0.0 0.00 0.00 0.00 44 1016.0
20260901020907 87 14 0.0 0.0 0.00 0.00 0.00 44 1015.8
20260901020403 87 10 0.0 0.0 0.00 0.00 0.00 43 1015.8
20260901015901 87 10 0.0 0.0 0.00 0.00 0.00 43 1015.9
20260901015358 88 8 0.0 0.0 0.00 0.00 0.00 43 1015.8
20260901014857 88 12 0.0 0.0 0.00 0.00 0.00 42 1015.7
20260901014354 88 12 0.0 0.0 0.00 0.00 0.00 42 1015.6
20260901013849 88 11 0.0 0.0 0.00 0.00 0.00 42 1015.6
20260901013344 89 12 0.0 0.0 0.00 0.00 0.00 41 1015.5
20260901012840 89 11 0.0 0.0 0.00 0.00 0.00 40 1015.4
20260901012335 90 13 0.0 0.0 0.00 0.00 0.00 40 1015.4
20260901011831 90 14 0.0 0.0 0.00 0.00 0.00 39 1015.4
20260901011327 91 13 0.0 0.0 0.00 0.00 0.00 38 1015.2
20260901010825 92 13 0.0 0.0 0.00 0.00 0.00 38 1015.5
20260901010320 92 14 0.0 0.0 0.00 0.00 0.00 37 1015.2
20260901005818 93 10 0.0 0.0 0.00 0.00 0.00 36 1015.3
20260901005314 93 6 0.0 0.0 0.00 0.00 0.00 36 1015.1
20260901004814 94 10 0.0 0.0 0.00 0.00 0.00 35 1015.2
20260901004308 95 9 0.0 0.0 0.00 0.00 0.00 34 1015.0
20260901003803 95 7 0.0 0.0 0.00 0.00 0.00 33 1015.1
20260901003258 96 179 1.7 2.6 0.00 0.00 0.00 32 1015.3
20260901002756 96 10 0.0 0.0 0.00 0.00 0.00 32 1015.0
20260901002252 97 4 0.9 0.9 0.00 0.00 0.00 32 1015.2
20260901001747 97 7 1.7 1.7 0.00 0.00 0.00 31 1015.2
20260901001242 97 26 0.9 1.7 0.00 0.00 0.00 31 1015.0
20260901000737 98 210 2.6 3.5 0.00 0.00 0.00 31 1015.1
20260901000233 98 295 1.7 2.6 0.00 0.00 0.00 30 1015.0
20260831235731 98 27 0.9 0.9 0.00 0.00 0.00 30 1015.0
20260831235227 99 214 1.7 5.2 0.00 0.00 0.00 30 1015.1
20260831234728 99 225 2.6 2.6 0.00 0.00 0.00 30 1014.9
20260831234227 99 227 3.5 5.2 0.00 0.00 0.00 29 1015.1
20260831233722 100 200 5.2 6.1 0.00 0.00 0.00 29 1015.1
20260831233218 99 222 6.1 7.8 0.00 0.00 0.00 29 1015.0
20260831232718 100 241 2.6 2.6 0.00 0.00 0.00 29 1015.0
20260831232214 101 95 0.9 1.7 0.00 0.00 0.00 28 1015.0
20260831231705 101 22 1.7 1.7 0.00 0.00 0.00 28 1015.0
20260831231201 101 312 1.7 2.6 0.00 0.00 0.00 28 1015.0
20260831230700 101 349 1.7 2.6 0.00 0.00 0.00 28 1015.0
20260831230156 101 270 1.7 1.7 0.00 0.00 0.00 28 1015.0
20260831225655 101 340 1.7 2.6 0.00 0.00 0.00 28 1015.0
20260831225150 101 216 7.8 8.7 0.00 0.00 0.00 28 1015.0
20260831224645 102 268 0.9 1.7 0.00 0.00 0.00 28 1015.3
20260831224146 100 251 1.7 1.7 0.00 0.00 0.00 29 1015.1
20260831223641 101 0 1.7 2.6 0.00 0.00 0.00 28 1015.0
20260831223138 102 176 6.1 7.8 0.00 0.00 0.00 28 1015.1
20260831222633 102 197 3.5 3.5 0.00 0.00 0.00 28 1015.2
20260831222128 102 107 1.7 1.7 0.00 0.00 0.00 28 1015.1
20260831221624 101 17 1.7 2.6 0.00 0.00 0.00 29 1015.2
20260831221119 101 235 6.1 8.7 0.00 0.00 0.00 29 1015.4
20260831220614 102 193 2.6 3.5 0.00 0.00 0.00 28 1015.1
20260831220109 102 356 0.9 0.9 0.00 0.00 0.00 28 1015.2
20260831215605 102 95 2.6 3.5 0.00 0.00 0.00 28 1015.2
20260831215055 101 230 3.5 5.2 0.00 0.00 0.00 29 1015.3
20260831214552 102 188 2.6 2.6 0.00 0.00 0.00 29 1015.5
20260831214048 102 82 4.3 5.2 0.00 0.00 0.00 29 1015.6
20260831213544 102 327 2.6 5.2 0.00 0.00 0.00 28 1015.6
20260831213039 101 12 1.7 2.6 0.00 0.00 0.00 29 1015.6
20260831212535 100 49 0.9 1.7 0.00 0.00 0.00 30 1015.4
20260831212031 101 152 3.5 3.5 0.00 0.00 0.00 29 1015.6
20260831211525 101 210 2.6 2.6 0.00 0.00 0.00 29 1015.6
20260831211024 102 281 7.8 8.7 0.00 0.00 0.00 28 1015.8
20260831210520 102 314 1.7 2.6 0.00 0.00 0.00 29 1015.7
20260831210016 102 39 2.6 6.1 0.00 0.00 0.00 29 1015.7
20260831205511 103 27 1.7 1.7 0.00 0.00 0.00 29 1015.7
20260831205007 100 344 0.9 1.7 0.00 0.00 0.00 30 1015.8
20260831204507 101 53 3.5 5.2 0.00 0.00 0.00 30 1015.7
20260831204005 100 352 1.7 2.6 0.00 0.00 0.00 30 1015.9
20260831203505 100 265 3.5 5.2 0.00 0.00 0.00 30 1016.0
20260831203003 101 200 7.0 8.7 0.00 0.00 0.00 29 1016.1
20260831202458 100 55 1.7 1.7 0.00 0.00 0.00 30 1016.1
20260831201957 101 215 3.5 3.5 0.00 0.00 0.00 29 1016.3
20260831201456 101 65 3.5 3.5 0.00 0.00 0.00 29 1016.2
20260831200953 101 228 7.0 8.7 0.00 0.00 0.00 28 1016.4
20260831200448 100 332 2.6 2.6 0.00 0.00 0.00 29 1016.4
20260831195948 100 172 8.7 13.0 0.00 0.00 0.00 28 1016.5
20260831195443 101 109 2.6 2.6 0.00 0.00 0.00 28 1016.7
20260831194938 102 181 7.8 9.6 0.00 0.00 0.00 27 1016.6
20260831194434 101 51 0.9 0.9 0.00 0.00 0.00 27 1016.6
20260831193933 100 177 5.2 7.0 0.00 0.00 0.00 28 1016.6
20260831193428 100 282 3.5 5.2 0.00 0.00 0.00 29 1016.6
20260831192923 100 258 6.1 8.7 0.00 0.00 0.00 28 1016.7
20260831192419 100 218 5.2 7.0 0.00 0.00 0.00 29 1016.6
20260831191914 100 220 4.3 7.8 0.00 0.00 0.00 29 1016.9
20260831191410 100 180 5.2 8.7 0.00 0.00 0.00 29 1017.1
20260831190906 99 143 5.2 7.8 0.00 0.00 0.00 30 1016.8
20260831190406 100 140 4.3 5.2 0.00 0.00 0.00 30 1016.8
20260831185905 100 217 4.3 7.0 0.00 0.00 0.00 30 1017.2
20260831185401 101 198 2.6 6.1 0.00 0.00 0.00 29 1017.1
20260831184900 100 56 0.9 1.7 0.00 0.00 0.00 29 1017.0
20260831184355 101 230 3.5 5.2 0.00 0.00 0.00 29 1017.0
20260831183851 99 228 4.3 5.2 0.00 0.00 0.00 30 1017.2
20260831183350 99 213 4.3 7.8 0.00 0.00 0.00 30 1017.3
20260831182849 100 126 4.3 6.1 0.00 0.00 0.00 30 1017.2
20260831182344 100 140 7.0 7.8 0.00 0.00 0.00 29 1017.4
20260831181840 99 55 1.7 3.5 0.00 0.00 0.00 31 1017.4
20260831181335 99 26 0.9 0.9 0.00 0.00 0.00 32 1017.6
20260831180830 99 156 3.5 5.2 0.00 0.00 0.00 31 1017.5
20260831180325 100 129 6.1 7.8 0.00 0.00 0.00 30 1017.6
20260831175823 99 253 1.7 2.6 0.00 0.00 0.00 32 1017.8
20260831175320 99 325 0.9 0.9 0.00 0.00 0.00 33 1017.8
20260831174816 99 261 1.7 2.6 0.00 0.00 0.00 32 1017.6
20260831174312 99 172 3.5 5.2 0.00 0.00 0.00 32 1017.8
20260831173811 98 332 1.7 2.6 0.00 0.00 0.00 33 1017.9
20260831173304 98 262 7.8 8.7 0.00 0.00 0.00 32 1017.8
20260831172800 97 253 1.7 2.6 0.00 0.00 0.00 35 1017.9
20260831172255 97 190 3.5 5.2 0.00 0.00 0.00 35 1018.0
20260831171755 98 153 4.3 6.1 0.00 0.00 0.00 34 1018.2
20260831171253 98 235 5.2 6.1 0.00 0.00 0.00 35 1018.3
20260831170749 97 254 3.5 5.2 0.00 0.00 0.00 35 1018.5
20260831170245 96 290 3.5 6.1 0.00 0.00 0.00 37 1018.3
20260831165741 96 231 4.3 6.1 0.00 0.00 0.00 37 1018.5
20260831165237 96 307 2.6 6.1 0.00 0.00 0.00 38 1018.3
20260831164733 96 286 3.5 3.5 0.00 0.00 0.00 37 1018.4
20260831164229 96 318 5.2 6.1 0.00 0.00 0.00 37 1018.5
20260831163724 96 209 6.1 9.6 0.00 0.00 0.00 37 1018.5
20260831163220 96 162 5.2 7.0 0.00 0.00 0.00 38 1018.3
20260831162718 95 332 3.5 5.2 0.00 0.00 0.00 38 1018.4
20260831162217 95 304 1.7 1.7 0.00 0.00 0.00 39 1018.5
20260831161712 94 117 2.6 3.5 0.00 0.00 0.00 40 1018.7
20260831161209 94 197 3.5 5.2 0.00 0.00 0.00 40 1018.6
20260831160708 94 130 4.3 7.8 0.00 0.00 0.00 40 1018.6
20260831160204 93 24 1.7 2.6 0.00 0.00 0.00 41 1018.5
20260831155703 93 239 4.3 6.1 0.00 0.00 0.00 41 1018.7
20260831155159 93 153 5.2 7.8 0.00 0.00 0.00 42 1018.7
20260831154654 92 312 1.7 1.7 0.00 0.00 0.00 45 1018.7
20260831154150 92 220 5.2 7.8 0.00 0.00 0.00 44 1018.7
20260831153648 91 183 7.0 8.7 0.00 0.00 0.00 45 1018.6
20260831153145 92 203 5.2 7.0 0.00 0.00 0.00 44 1018.6
20260831152640 91 216 5.2 6.1 0.00 0.00 0.00 45 1018.4
20260831152137 90 237 3.5 3.5 0.00 0.00 0.00 46 1018.7
20260831151636 90 219 4.3 7.8 0.00 0.00 0.00 46 1018.5
20260831151131 90 176 3.5 5.2 0.00 0.00 0.00 47 1018.4
20260831150626 89 242 6.1 7.8 0.00 0.00 0.00 47 1018.5
20260831150122 89 201 6.1 7.8 0.00 0.00 0.00 47 1018.4
20260831145621 89 262 5.2 6.1 0.00 0.00 0.00 47 1018.4
20260831145118 89 214 6.1 7.8 0.00 0.00 0.00 48 1018.4
20260831144613 89 102 3.5 5.2 0.00 0.00 0.00 48 1018.6
20260831144109 89 259 3.5 3.5 0.00 0.00 0.00 48 1018.3
20260831143608 88 171 1.7 3.5 0.00 0.00 0.00 48 1018.5
20260831143104 88 229 2.6 2.6 0.00 0.00 0.00 49 1018.6
20260831142601 87 100 4.3 6.1 0.00 0.00 0.00 50 1018.4
20260831142056 87 56 1.7 2.6 0.00 0.00 0.00 51 1018.4
20260831141554 86 231 5.2 8.7 0.00 0.00 0.00 51 1018.3
20260831141050 86 220 3.5 5.2 0.00 0.00 0.00 52 1018.5
20260831140549 85 218 7.0 8.7 0.00 0.00 0.00 52 1018.4
20260831140049 85 113 4.3 6.1 0.00 0.00 0.00 53 1018.3
20260831135547 85 221 6.1 9.6 0.00 0.00 0.00 53 1018.2
20260831135043 84 326 0.9 1.7 0.00 0.00 0.00 54 1018.3
20260831134539 84 132 3.5 5.2 0.00 0.00 0.00 54 1018.2
20260831134039 84 103 3.5 3.5 0.00 0.00 0.00 54 1018.2
20260831133538 84 186 1.7 1.7 0.00 0.00 0.00 54 1018.2
20260831133033 83 73 3.5 3.5 0.00 0.00 0.00 55 1018.2
20260831132530 83 195 4.3 6.1 0.00 0.00 0.00 55 1018.1
20260831132029 82 194 2.6 2.6 0.00 0.00 0.00 55 1018.3
20260831131529 82 193 5.2 7.0 0.00 0.00 0.00 55 1018.2
20260831131026 82 66 1.7 1.7 0.00 0.00 0.00 56 1018.0
20260831130525 82 307 2.6 2.6 0.00 0.00 0.00 56 1017.9
20260831130021 82 234 2.6 3.5 0.00 0.00 0.00 56 1018.0
20260831125514 81 197 2.6 2.6 0.00 0.00 0.00 56 1017.9
20260831125010 81 183 2.6 5.2 0.00 0.00 0.00 56 1017.6
20260831124507 81 0 2.6 3.5 0.00 0.00 0.00 56 1017.8
20260831124002 80 179 3.5 5.2 0.00 0.00 0.00 57 1017.6